Back to catalog

STARLINK-37537

AliveCommunicationsSSO
NORAD 69420·PAYLOAD·🇺🇸 United States

Launched Jun 7, 2026 from Vandenberg Space Force Base

Loading…

Next Passes (next 24 hours)

TLE

FreshSource: CelesTrak SupGP

Epoch: Sep 15, 2026, 03:15 UTC

1 69420C 26126A   26258.13590278 -.00000317  00000+0 -98250-5 0  2585
2 69420  97.2846 119.4754 0002328  94.8063 291.2180 15.33445811    14

Track STARLINK-37537 in real time with AllMySat

Download on the App Store